Fayetteville, NC

6:57 AM EST on February 22, 2017 (GMT -0500)
Fayetteville Regional-Grannis

Weather History for KFAY - March, 2014

Change the Weather History Date:

Tuesday, March 25, 2014

  Actual Average Record
Temperature  
Mean Temperature 42 °F 57 °F  
Max Temperature 48 °F 69 °F 87 °F (1939)
Min Temperature 35 °F 45 °F 23 °F (1940)
Degree Days  
Heating Degree Days 23 8  
Month to date heating degree days 427 297  
Since 1 July heating degree days 2752 2522  
Cooling Degree Days 0 0  
Month to date cooling degree days 0 0  
Year to date cooling degree days 3 4  
Moisture  
Dew Point 34 °F    
Average Humidity 72    
Maximum Humidity 79    
Minimum Humidity 65    
Precipitation  
Precipitation 0.03 in 0.12 in 1.65 in (1983)
Month to date precipitation 2.55 2.73  
Year to date precipitation 9.27 8.79  
Sea Level Pressure  
Sea Level Pressure 29.87 in    
Wind  
Wind Speed 8 mph (NNW)    
Max Wind Speed 21 mph    
Max Gust Speed 27 mph    
Visibility 10 miles    
Events Rain    
T = Trace of Precipitation, MM = Missing Value Source: NWS Daily Summary

Daily Weather History Graph

Daily Weather History Graph

Search for Another Location

Airport or City:

Trip Planner

Search our weather history database for the weather conditions in past years. The results will help you decide how hot, cold, wet, or windy it might be!

Date:

Astronomy

Mar. 25, 2014 Rise Set
Actual Time 7:12 AM EDT 7:31 PM EDT
Civil Twilight 6:46 AM EDT 7:56 PM EDT
Nautical Twilight 6:17 AM EDT 8:26 PM EDT
Astronomical Twilight 5:47 AM EDT 8:56 PM EDT
Moon 3:20 AM EDT (3/25) 2:10 PM EDT (3/25)
Length of Visible Light 13h 09m
Length of Day
12h 19m
Waning Crescent, 32% of the Moon is Illuminated
Mar 25
Waning Crescent
Mar 30
New
Apr 7
First Quarter
Apr 15
Full
Apr 22
Last Quarter

Hourly Weather History & Observations

Time (EDT) Temp. Windchill Dew Point Humidity Pressure Visibility Wind Dir Wind Speed Gust Speed Precip Events Conditions
12:53 AM 37.0 °F 33.3 °F 28.9 °F 73% 30.09 in 10.0 mi ESE 4.6 mph - N/A   Clear
1:53 AM 37.0 °F 33.3 °F 28.0 °F 70% 30.06 in 10.0 mi East 4.6 mph - N/A   Clear
2:53 AM 37.0 °F 34.5 °F 28.0 °F 70% 30.03 in 10.0 mi East 3.5 mph - N/A   Clear
3:53 AM 36.0 °F - 28.0 °F 73% 30.01 in 10.0 mi Calm Calm - N/A   Clear
4:53 AM 37.0 °F 32.4 °F 30.0 °F 76% 29.99 in 10.0 mi ESE 5.8 mph - N/A   Scattered Clouds
5:53 AM 37.9 °F 35.5 °F 30.0 °F 73% 29.96 in 10.0 mi East 3.5 mph - N/A   Overcast
6:53 AM 39.0 °F - 30.9 °F 73% 29.95 in 10.0 mi Calm Calm - N/A   Overcast
7:53 AM 39.0 °F 34.0 °F 33.1 °F 79% 29.94 in 10.0 mi ENE 6.9 mph - N/A   Overcast
8:53 AM 42.1 °F 34.9 °F 32.0 °F 67% 29.88 in 10.0 mi ESE 13.8 mph - N/A   Overcast
9:53 AM 45.0 °F 42.6 °F 34.0 °F 65% 29.89 in 10.0 mi Variable 4.6 mph - N/A   Overcast
10:53 AM 46.0 °F - 35.1 °F 66% 29.89 in 10.0 mi Calm Calm - N/A   Overcast
11:53 AM 46.0 °F 43.9 °F 35.1 °F 66% 29.85 in 10.0 mi NE 4.6 mph - N/A   Overcast
12:53 PM 46.0 °F 43.1 °F 37.9 °F 73% 29.82 in 10.0 mi North 5.8 mph - 0.02 in   Overcast
1:53 PM 46.9 °F - 37.9 °F 71% 29.77 in 10.0 mi NNE 6.9 mph - 0.00 in   Overcast
2:53 PM 46.0 °F 41.9 °F 37.9 °F 73% 29.75 in 10.0 mi North 8.1 mph - 0.00 in Rain Light Rain
3:53 PM 45.0 °F 39.7 °F 37.0 °F 74% 29.75 in 10.0 mi NNW 10.4 mph - 0.00 in   Overcast
4:11 PM 45.0 °F 39.7 °F 37.0 °F 74% 29.76 in 10.0 mi NW 10.4 mph - 0.00 in Rain Light Rain
4:53 PM 44.1 °F 38.1 °F 37.0 °F 76% 29.75 in 10.0 mi NNW 11.5 mph - 0.01 in   Overcast
5:30 PM 46.0 °F 40.6 °F 37.0 °F 71% 29.75 in 10.0 mi NW 11.5 mph - N/A   Mostly Cloudy
5:53 PM 46.0 °F 41.4 °F 37.0 °F 71% 29.75 in 10.0 mi NW 9.2 mph - N/A   Mostly Cloudy
6:19 PM 45.0 °F 38.9 °F 36.0 °F 71% 29.77 in 10.0 mi WNW 12.7 mph - N/A   Overcast
6:32 PM 45.0 °F 37.9 °F 35.1 °F 68% 29.78 in 10.0 mi NW 16.1 mph 24.2 mph N/A   Overcast
6:43 PM 45.0 °F 38.5 °F 36.0 °F 71% 29.79 in 10.0 mi WNW 13.8 mph 24.2 mph N/A   Overcast
6:53 PM 45.0 °F 37.1 °F 36.0 °F 71% 29.78 in 10.0 mi WNW 19.6 mph 23.0 mph N/A   Overcast
7:53 PM 44.1 °F 37.7 °F 35.1 °F 71% 29.81 in 10.0 mi NW 12.7 mph - N/A   Overcast
8:18 PM 43.0 °F 35.7 °F 35.1 °F 74% 29.84 in 10.0 mi WNW 15.0 mph 21.9 mph N/A   Overcast
8:42 PM 41.0 °F 32.5 °F 35.1 °F 79% 29.86 in 10.0 mi WNW 17.3 mph 26.5 mph N/A   Overcast
8:53 PM 39.9 °F 31.8 °F 35.1 °F 83% 29.86 in 8.0 mi WNW 15.0 mph 24.2 mph 0.00 in Rain Light Rain
9:53 PM 41.0 °F 34.3 °F 32.0 °F 70% 29.88 in 10.0 mi NW 11.5 mph - 0.00 in   Overcast
10:53 PM 39.0 °F 32.3 °F 30.9 °F 73% 29.91 in 10.0 mi WNW 10.4 mph - N/A   Clear
11:53 PM 37.9 °F 29.2 °F 30.9 °F 76% 29.94 in 10.0 mi WNW 15.0 mph - N/A   Clear